www.pogodaiklimat.ru

Погода и климат >> Архив погоды >> Украина >> Ясиня


ПОГОДА в Ясине

  • Прогноз погоды в Ясине
  • Монитор погоды в Ясине

АРХИВ ПОГОДЫ в Ясине

Время (UTC), дата Ветер
(напр.,м/с)
 
Видим.   Явления Облачность Т
(С)
Тd
(С)
f
(%)
Тe
(С)
Тes
(С)
Комфортность P
(гПа)
Po
(гПа)
Тmin
(С)
Tmax
(С)
R
(мм)
R24
(мм)
S
(см)
12 10.08 З 2 10 км 6/4 600 м
[Cu Sc Ci]
+27.6 +15.0 46 +30 +38 жарко 1014.1 933.3
15 10.08 ЮЗ 1 10 км 3/3 600 м
[Cu med, cong Ci fib]
+28.3 +16.0 47 +31 +35 душно 1013.8 933.2
18 10.08 СВ 1 10 км ясно +20.1 +16.4 79 +24 +24 комфорт 1016.2 933.2 +28.5
21 10.08 штиль 0 10 км ясно +18.3 +15.9 86 +19 +19 1017.1 933.5
00 11.08 ЮЗ 1 10 км ясно +17.1 +15.1 88 +18 +18 1016.8 932.9
06 11.08 штиль 0 10 км 10/10 600 м
[Sc]
+18.5 +16.9 90 +19 +19 1017.7 934.2 +16.8
12 11.08 СВ 3 10 км 10/10 300 м
[Sc]
+21.5 +18.5 83 +26 +26 душно 1017.9 935.2
18 11.08 штиль 0 10 км 10/10 600 м
[Sc]
+20.9 +18.8 88 +25 +25 комфорт 1018.4 935.5 +23.6
00 12.08 З 1 10 км 4/3 600 м
[Sc Ac trans]
+17.1 +16.4 96 +18 +18 1018.4 934.4
06 12.08 ЮЗ 1 10 км ясно +20.7 +16.2 75 +25 +30 комфорт 1016.8 933.9 +16.1
12 12.08 ЮЗ 2 10 км 3/3 600 м
[Cu med, cong]
+31.7 +15.9 39 +35 +44 очень
душно
1012.9 933.2
15 12.08 ЮЗ 2 10 км ясно +30.8 +15.7 40 +33 +37 душно 1012.2 932.3
18 12.08 штиль 0 10 км ясно +23.7 +15.6 60 +27 +27 жарко 1013.7 931.9 +32.0
21 12.08 штиль 0 10 км ясно +20.3 +17.7 85 +23 +23 комфорт 1014.7 931.9
00 13.08 штиль 0 10 км ясно +18.7 +16.9 89 +20 +20 1014.2 931.0
03 13.08 штиль 0 10 км ясно +17.6 +16.4 93 +18 +18 1013.4 930.0
06 13.08 ЮЗ 1 10 км ясно +23.3 +18.7 75 +29 +35 душно 1012.1 930.3 +17.5
09 13.08 штиль 0 10 км 3/3
[Cu hum]
+29.7 +19.3 54 +35 +48 очень
душно
1011.0 930.9
12 13.08 СВ 3 10 км 1/1 600 м
[Cu hum]
+30.5 +20.8 56 +38 +47 очень
душно
1010.5 930.7
15 13.08 СВ 3 10 км 3/3 600 м
[Cu med, cong]
+26.1 +19.1 65 +31 +33 очень
душно
1011.4 930.4
18 13.08 СВ 3 10 км {гроза} 10/10 600 м
[Sc]
+22.7 +19.2 81 +29 +29 очень
душно
1013.7 931.6 +32.0
21 13.08 штиль 0 10 км 10/10 600 м
[Sc]
+19.2 +17.0 87 +21 +21 комфорт 1016.0 932.8
00 14.08 штиль 0 10 км 10/10 600 м
[Sc]
+19.1 +17.1 88 +21 +21 комфорт 1013.5 930.5
03 14.08 штиль 0 10 км 10/10 600 м
[Sc]
+19.1 +17.4 90 +21 +21 комфорт 1011.7 928.8
06 14.08 штиль 0 10 км 10/10 300 м
[St]
+18.5 +17.2 92 +19 +19 1011.1 928.1 +18.4
09 14.08 СВ 3 10 км 4/4 600 м
[Cu Sc]
+22.1 +18.4 80 +27 +34 душно 1008.4 926.6
12 14.08 СВ 2 10 км 10/10 600 м
[Cb calv]
+22.1 +19.5 85 +28 +28 душно 1008.2 926.4
15 14.08 ЮВ 2 10 км 8/8 600 м
[Cb calv]
+25.5 +16.6 58 +29 +30 душно 1007.4 926.6
18 14.08 СВ 4 10 км 10/10 600 м
[Cb calv]
+15.7 +10.9 73 +15 +15 1014.1 930.1 +27.0
21 14.08 СВ 1 10 км в посл. час ливневой дождь 10/10 600 м
[Cb cap]
+13.1 +12.2 94 +13 +13 1017.0 932.0
00 15.08 СВ 1 10 км слаб. ливневой дождь 10/10 600 м
[Cb cap]
+12.4 +11.4 94 +12 +12 1016.6 931.4
03 15.08 штиль 0 10 км слаб. ливневой дождь 10/10 600 м
[Cb cap]
+12.1 +11.5 96 +11 +11 1017.2 931.9
06 15.08 штиль 0 10 км слаб. ливневой дождь 10/10 600 м
[Cb cap]
+12.0 +11.1 94 +11 +11 1017.9 932.5 +11.7 11
12 15.08 штиль 0 10 км в посл. час дождь {ливн. осадки} 10/10 300 м
[St]
+12.8 +11.3 91 +12 +12 1017.5 932.4
18 15.08 штиль 0 10 км 10/10 600 м
[Sc]
+13.3 +11.7 90 +13 +13 1016.5 931.6 +15.2 1
00 16.08 ЮЗ 1 10 км 10/10 600 м
[Sc]
+12.0 +10.9 93 +12 +12 1017.1 931.8
06 16.08 штиль 0 10 км 6/6 600 м
[Cu Sc]
+13.7 +11.2 85 +13 +15 1016.8 932.0 +11.7
12 16.08 штиль 0 10 км 8/8 600 м
[Sc]
+17.5 +8.4 55 +18 +21 1015.5 931.9
18 16.08 штиль 0 10 км 8/8 600 м
[Sc]
+15.0 +10.0 72 +15 +15 1016.4 932.0 +18.9
00 17.08 штиль 0 10 км ясно +10.4 +8.4 87 +10 +10 1018.6 932.7
06 17.08 ЮЗ 2 10 км ясно +12.3 +9.3 82 +11 +15 1018.9 933.5 +8.4

 

Местоположение метеостанции Ясиня (Закарпатская область, Украина): широта 48.27 долгота 24.37 высота над уровнем моря 731 м.

В архиве по умолчанию представлена погода в Ясине за последнюю неделю. Архивные данные за месяц целиком и за предыдущие месяцы, начиная с января 2011 года, Вы можете получить, выбрав интересующий диапазон дат из раскрывающегося списка и нажав кнопку "Ввод!".


*Определитесь, кто Вы:
робот инопланетянин человек

Внимание! Время в таблицах - всемирное. Для получения местного времени необходимо прибавить поправку, которая равна 2 ч.

Смотрите также архив погоды в соседних городах и на ближайших метеорологических станциях:

Погода на Пожежевской (Ивано-Франковская область, Украина) (16 км)
Погода в Рахове (Закарпатская область, Украина) (25 км)
Погода в Сигету-Мармацией (Румыния) (50 км)
Погода в Коломые (Ивано-Франковская область, Украина) (57 км)
Погода в Окна Сугатаг (Румыния) (68 км)
Погода в Хусте (Закарпатская область, Украина) (69 км)
Погода в Селятине (Черновицкая область, Украина) (77 км)
Погода в Иезере (Румыния) (77 км)
Погода в Ивано-Франковске (Ивано-Франковская область, Украина) (82 км)
Погода в Долине (Ивано-Франковская область, Украина) (82 км)

Пояснения к столбцам:

Ветер - указаны скорость ветра в м/с - средняя за 10 мин, порывы в срок и между сроками (в фигурных скобках) и направление, откуда дует ветер: С - северный, СВ - северо-восточный, В - восточный, ЮВ - юго-восточный, Ю - южный, ЮЗ - юго-западный, З - западный, СЗ - северо-западный.
Видимость - горизонтальная дальность видимости в метрах или километрах. При видимости от 1 до 10 км при отсутствии осадков обычно наблюдается дымка, при ухудшении видимости до 1 км и менее - туман. В сухую погоду видимость может ухудшаться дымом, пылью или мглою.
Явления - указаны атмосферные явления, наблюдавшиеся в срок или в последний час перед сроком; фигурными скобками обозначены явления, наблюдавшиеся между сроками (за 1-3 часа до срока); квадратными скобками обозначены град или гололедные отложения с указанием их диаметра в мм.
Облачность - указаны через наклонную черту общая и нижняя облачность в баллах и высота нижней границы облаков в метрах; квадратными скобками обозначены формы облаков: Ci - перистые, Cs - перисто-слоистые, Cc - перисто-кучевые, Ac - высококучевые, As - высокослоистые, Sc - слоисто-кучевые, Ns - слоисто-дождевые, Cu - кучевые, Cb - кучево-дождевые. Подробнее классификацию облаков см. в Атласе облаков (PDF).
T - Температура воздуха - температура, измеренная на высоте 2 м над землей.
Td - Температура точки росы - температура, при понижении до которой содержащийся в воздухе водяной пар достигнет насыщения.
f - Относительная влажность воздуха - влажноcть воздуха, измеренная на высоте 2 м над землей.
Te - Эффективная температура - температура, которую ощущает одетый по сезону человек в тени. Характеристика душности погоды. При расчете учитывается влияние влажности воздуха и скорости ветра на теплоощущения человека.
Tes - Эффективная температура на солнце - температура, которую ощущает человек, с поправкой на солнечный нагрев. Характеристика знойности погоды. Зависит от высоты солнца над горизонтом, облачности и скорости ветра. Ночью, в пасмурную погоду, а также при ветре 12 м/с и более поправка равна нулю.
P - Атмосферное давление - приведенное к уровню моря атмосферное давление.
Po - Атмосферное давление - измеренное на уровне метеостанции атмосферное давление.
Tmin - Минимальная температура - минимум температуры воздуха на высоте 2 м над землей.
Tmax - Максимальная температура - максимум температуры воздуха на высоте 2 м над землей.
R - Количество осадков - Количество выпавших осадков за период времени, мм. При наведении курсора мыши на число - период времени, за который выпало указанное количество осадков.
R24 - Количество осадков - Количество выпавших осадков за 24 часа, мм.
S - Снежный покров - Высота снежного покрова, см. При наведении курсора мыши на число - состояние снежного покрова и степень покрытия местности в баллах.